Weather in New Brunswick

United States     40°27′00″N   74°29′04″W
temp.,
°C
wind,
m/s
gust,
m/s
humid.,
%
clouds,
%
prec.,
mm/h
press.,
hPa
HPBL,
m
17 may, mon
mon1723:00+14ene1182100 0.3 102515
02:00+13nw11868 0.3 102413
05:00+11nw11870 0.0 102522
08:00+15wnw11680 0.0 1026189
11:00+21sw22440 0.0 10261250
14:00+23wsw333222 0.0 10252547
17:00+23sw343483 0.0 10242447
20:00+18ssw235099 0.0 1025148
18 may, tue
tue1823:00+15wsw26685 0.0 1026179
02:00+13wsw2666100 0.0 1026167
05:00+12sw267252 0.0 1026165
08:00+15wsw356824 0.0 1028267
11:00+21wsw34480 0.0 10271068
14:00+24wsw453998 0.0 10252574
17:00+25w353920 0.0 10232133
20:00+20w266778 0.0 1024149
19 may, wed
wed1923:00+17wnw27731 0.0 1025176
02:00+16wnw22772 0.0 102555
05:00+15nw23775 0.0 102564
08:00+19nw23625 0.0 1027237
11:00+25wnw23420 0.0 10271403
14:00+28w35335 0.0 10262462
17:00+28wsw44391 0.0 10241440
20:00+23w37620 0.0 1025214
20 may, thu
thu2023:00+20wsw22670 0.0 102645
02:00+18w23730 0.0 102660
05:00+17wnw117961 0.0 102725
08:00+21nnw1264100 0.0 1029170
11:00+26e1145100 0.0 1029908
14:00+29ese1237100 0.0 10281777
17:00+25e4446100 0.0 1027487
20:00+20ese3463100 0.0 1029343
21 may, fri
fri2123:00+19e2370100 0.0 1029232
02:00+16e248598 0.1 1029170
05:00+17ene1182100 0.0 1029108
08:00+16e1184100 0.1 1030123
11:00+16se1295100 1.9 1030129
14:00+17se1194100 2.4 1028193
17:00+17se1397100 0.8 1027149
20:00+17s2398100 2.3 1026115